Weather History for KMMH - October, 2013

Change the Weather History Date:

Wednesday, October 23, 2013

  Actual Average (KBIH) Record (KBIH)
Temperature  
Mean Temperature 44 °F 54 °F  
Max Temperature 66 °F 73 °F 93 °F (1959)
Min Temperature 21 °F 35 °F 24 °F (1961)
Degree Days  
Heating Degree Days 22 11  
Month to date heating degree days 163  
Since 1 July heating degree days 206  
Cooling Degree Days 0 0  
Month to date cooling degree days 7  
Year to date cooling degree days 1103  
Moisture  
Dew Point 14 °F    
Average Humidity 35    
Maximum Humidity 68    
Minimum Humidity 12    
Precipitation  
Precipitation 0.00 in 0.01 in 0.09 in (1953)
Month to date precipitation 0.20  
Year to date precipitation 3.76  
Snow  
Snow 0.00 in 0.00 in - ()
Month to date snowfall 0.0  
Since 1 July snowfall 0.0  
Since 1 September snowfall 0.0  
Snow Depth -    
Sea Level Pressure  
Sea Level Pressure 30.21 in    
Wind  
Wind Speed 3 mph (ENE)    
Max Wind Speed 13 mph    
Max Gust Speed 18 mph    
Visibility 10 miles    
Events      
T = Trace of Precipitation, MM = Missing Value Source: NWS Daily Summary

Daily Weather History Graph

Daily Weather History Graph

Search for Another Location

Airport or City:

Trip Planner

Search our weather history database for the weather conditions in past years. The results will help you decide how hot, cold, wet, or windy it might be!

Date:

Astronomy

Oct. 23, 2013 Rise Set
Actual Time 7:11 AM PDT 6:07 PM PDT
Civil Twilight 6:44 AM PDT 6:33 PM PDT
Nautical Twilight 6:14 AM PDT 7:04 PM PDT
Astronomical Twilight 5:43 AM PDT 7:34 PM PDT
Moon 9:45 PM PDT (10/23) 11:29 AM PDT (10/23)
Length of Visible Light 11h 48m
Length of Day
10h 55m
Waning Gibbous, 78% of the Moon is Illuminated
Oct 23
Waning Gibbous
Oct 26
Last Quarter
Nov 3
New
Nov 9
First Quarter
Nov 17
Full

Hourly Weather History & Observations

Time (PDT) Temp. Windchill Dew Point Humidity Pressure Visibility Wind Dir Wind Speed Gust Speed Precip Events Conditions
12:15 AM 35.6 °F 32.8 °F 14.0 °F 41% 30.24 in 10.0 mi NNW 3.5 mph - N/A   Clear
12:35 AM 35.6 °F - 14.0 °F 41% 30.24 in 10.0 mi Calm Calm - N/A   Clear
12:55 AM 35.6 °F 32.8 °F 14.0 °F 41% 30.24 in 10.0 mi NW 3.5 mph - N/A   Clear
1:15 AM 33.8 °F 30.8 °F 14.0 °F 44% 30.24 in 10.0 mi NNW 3.5 mph - N/A   Clear
1:35 AM 32.0 °F - 14.0 °F 48% 30.24 in 10.0 mi Calm Calm - N/A   Clear
1:55 AM 32.0 °F - 14.0 °F 48% 30.24 in 10.0 mi Calm Calm - N/A   Clear
2:15 AM 30.2 °F - 12.2 °F 47% 30.25 in 10.0 mi Calm Calm - N/A   Clear
2:35 AM 28.4 °F 24.6 °F 12.2 °F 51% 30.24 in 10.0 mi North 3.5 mph - N/A   Clear
2:55 AM 28.4 °F - 12.2 °F 51% 30.24 in 10.0 mi Calm Calm - N/A   Clear
3:15 AM 28.4 °F 24.6 °F 14.0 °F 55% 30.23 in 10.0 mi North 3.5 mph - N/A   Clear
3:35 AM 28.4 °F 24.6 °F 14.0 °F 55% 30.23 in 10.0 mi North 3.5 mph - N/A   Clear
3:55 AM 28.4 °F 24.6 °F 14.0 °F 55% 30.23 in 10.0 mi North 3.5 mph - N/A   Clear
4:15 AM 28.4 °F 24.6 °F 14.0 °F 55% 30.23 in 10.0 mi North 3.5 mph - N/A   Clear
4:35 AM 28.4 °F 24.6 °F 14.0 °F 55% 30.23 in 10.0 mi NW 3.5 mph - N/A   Clear
4:55 AM 28.4 °F - 15.8 °F 59% 30.23 in 10.0 mi Calm Calm - N/A   Clear
5:15 AM 28.4 °F - 14.0 °F 55% 30.23 in 10.0 mi Calm Calm - N/A   Clear
5:35 AM 24.8 °F - 12.2 °F 59% 30.23 in 10.0 mi Calm Calm - N/A   Clear
5:55 AM 23.0 °F 18.4 °F 12.2 °F 63% 30.23 in 10.0 mi North 3.5 mph - N/A   Clear
6:15 AM 23.0 °F - 12.2 °F 63% 30.23 in 10.0 mi North - - N/A   Clear
6:35 AM 24.8 °F - 12.2 °F 59% 30.23 in 10.0 mi Calm Calm - N/A   Clear
6:55 AM 21.2 °F - 10.4 °F 63% 30.23 in 10.0 mi North - - N/A   Clear
7:15 AM 24.8 °F - 12.2 °F 59% 30.23 in 10.0 mi North - - N/A   Clear
7:35 AM 21.2 °F - 12.2 °F 68% 30.23 in 10.0 mi North - - N/A   Clear
7:55 AM 21.2 °F - 8.6 °F 58% 30.24 in - Calm Calm - N/A   Unknown
8:15 AM 30.2 °F - 14.0 °F 51% 30.24 in 10.0 mi Calm Calm - N/A   Clear
8:35 AM 35.6 °F - 15.8 °F 44% 30.25 in 10.0 mi Calm Calm - N/A   Clear
8:55 AM 39.2 °F - 15.8 °F 39% 30.25 in 10.0 mi Calm Calm - N/A   Clear
9:15 AM 41.0 °F - 15.8 °F 36% 30.25 in 10.0 mi Calm Calm - N/A   Clear
9:35 AM 44.6 °F - 17.6 °F 34% 30.24 in 10.0 mi Calm Calm - N/A   Clear
9:55 AM 46.4 °F - 17.6 °F 32% 30.24 in 10.0 mi Calm Calm - N/A   Clear
10:15 AM 50.0 °F - 17.6 °F 28% 30.23 in 10.0 mi Calm Calm - N/A   Clear
10:35 AM 53.6 °F - 17.6 °F 24% 30.23 in 10.0 mi SE 4.6 mph - N/A   Clear
10:55 AM 55.4 °F - 17.6 °F 23% 30.23 in 10.0 mi SE 5.8 mph - N/A   Clear
11:15 AM 59.0 °F - 15.8 °F 19% 30.23 in 10.0 mi SE 3.5 mph - N/A   Clear
11:35 AM 59.0 °F - 15.8 °F 19% 30.22 in 10.0 mi East 3.5 mph - N/A   Clear
11:55 AM 60.8 °F - 15.8 °F 17% 30.22 in 10.0 mi East 5.8 mph - N/A   Clear
12:15 PM 62.6 °F - 15.8 °F 16% 30.21 in 10.0 mi SE 4.6 mph - N/A   Clear
12:35 PM 64.4 °F - 14.0 °F 14% 30.20 in 10.0 mi SSE 6.9 mph - N/A   Clear
12:55 PM 64.4 °F - 14.0 °F 14% 30.19 in 10.0 mi SSE 3.5 mph - N/A   Clear
1:15 PM 62.6 °F - 14.0 °F 15% 30.19 in 10.0 mi East 5.8 mph - N/A   Clear
1:35 PM 64.4 °F - 14.0 °F 14% 30.18 in 10.0 mi SE 6.9 mph - N/A   Clear
1:55 PM 64.4 °F - 12.2 °F 13% 30.17 in 10.0 mi Calm Calm - N/A   Clear
2:15 PM 64.4 °F - 12.2 °F 13% 30.16 in 10.0 mi SSE 4.6 mph - N/A   Clear
2:35 PM 64.4 °F - 12.2 °F 13% 30.16 in 10.0 mi South 8.1 mph - N/A   Clear
2:55 PM 66.2 °F - 12.2 °F 12% 30.16 in 10.0 mi SSE 6.9 mph - N/A   Clear
3:15 PM 66.2 °F - 14.0 °F 13% 30.16 in 10.0 mi ESE 11.5 mph 16.1 mph N/A   Clear
3:35 PM 64.4 °F - 12.2 °F 13% 30.16 in 10.0 mi SE 12.7 mph 18.4 mph N/A   Clear
3:55 PM 64.4 °F - 12.2 °F 13% 30.16 in 10.0 mi ESE 10.4 mph - N/A   Clear
4:15 PM 62.6 °F - 14.0 °F 15% 30.16 in 10.0 mi ESE 9.2 mph 16.1 mph N/A   Clear
4:35 PM 62.6 °F - 14.0 °F 15% 30.15 in 10.0 mi ESE 10.4 mph - N/A   Clear
4:55 PM 60.8 °F - 14.0 °F 16% 30.15 in 10.0 mi ESE 8.1 mph 16.1 mph N/A   Clear
5:15 PM 60.8 °F - 14.0 °F 16% 30.15 in 10.0 mi East 9.2 mph - N/A   Clear
5:35 PM 59.0 °F - 14.0 °F 17% 30.15 in 10.0 mi Calm Calm - N/A   Clear
5:55 PM 53.6 °F - 14.0 °F 21% 30.15 in 10.0 mi ESE 3.5 mph - N/A   Clear
6:15 PM 53.6 °F - 14.0 °F 21% 30.15 in 10.0 mi Calm Calm - N/A   Clear
6:35 PM 51.8 °F - 14.0 °F 22% 30.15 in 10.0 mi Calm Calm - N/A   Clear
6:55 PM 48.2 °F - 12.2 °F 24% 30.16 in 10.0 mi Calm Calm - N/A   Clear
7:15 PM 42.8 °F 39.3 °F 12.2 °F 29% 30.17 in 10.0 mi West 5.8 mph - N/A   Clear
7:35 PM 44.6 °F - 12.2 °F 27% 30.17 in 10.0 mi Calm Calm - N/A   Clear
7:55 PM 41.0 °F 38.0 °F 12.2 °F 31% 30.18 in 10.0 mi North 4.6 mph - N/A   Clear
8:15 PM 39.2 °F 35.0 °F 12.2 °F 33% 30.18 in 10.0 mi NNW 5.8 mph - N/A   Clear
8:35 PM 41.0 °F 38.0 °F 14.0 °F 33% 30.18 in 10.0 mi NW 4.6 mph - N/A   Clear
8:55 PM 39.2 °F - 14.0 °F 36% 30.19 in 10.0 mi Calm Calm - N/A   Clear
9:15 PM 39.2 °F 35.0 °F 14.0 °F 36% 30.19 in 10.0 mi NNW 5.8 mph - N/A   Clear
9:35 PM 39.2 °F 37.0 °F 14.0 °F 36% 30.19 in 10.0 mi West 3.5 mph - N/A   Clear
9:55 PM 37.4 °F - 14.0 °F 38% 30.20 in 10.0 mi Calm Calm - N/A   Clear
10:15 PM 39.2 °F 37.0 °F 14.0 °F 36% 30.20 in 10.0 mi North 3.5 mph - N/A   Clear
10:35 PM 37.4 °F 34.9 °F 14.0 °F 38% 30.20 in 10.0 mi North 3.5 mph - N/A   Clear
10:55 PM 35.6 °F - 15.8 °F 44% 30.20 in 10.0 mi Calm Calm - N/A   Clear
11:15 PM 35.6 °F 30.7 °F 15.8 °F 44% 30.20 in 10.0 mi WNW 5.8 mph - N/A   Clear
11:35 PM 33.8 °F - 15.8 °F 48% 30.20 in 10.0 mi Calm Calm - N/A   Clear
11:55 PM 39.2 °F 37.0 °F 15.8 °F 39% 30.20 in 10.0 mi WNW 3.5 mph - N/A   Clear